GW0719 Weather Reports


Display with metric or nautical units.
time (UTC)temp
F
wind
direction
speed
MPH
gust
MPH
rain 1hr
in
rain 24hr
in
rain mn
in
humidity
%
barometer
mb
20260508161620 64 274 0.0 1.0 0.00 0.00 0.00 10 1012.9
20260508161118 64 274 0.0 3.0 0.00 0.00 0.00 10 1013.0
20260508160616 64 282 0.0 2.0 0.00 0.00 0.00 10 1013.0
20260508160113 64 293 0.0 0.0 0.00 0.00 0.00 10 1013.3
20260508155610 62 294 0.0 0.0 0.00 0.00 0.00 10 1013.1
20260508155107 63 248 0.0 0.0 0.00 0.00 0.00 10 1013.1
20260508154603 63 289 0.0 1.0 0.00 0.00 0.00 10 1012.7
20260508154101 63 296 0.0 0.0 0.00 0.00 0.00 10 1013.1
20260508153557 62 292 0.0 0.0 0.00 0.00 0.00 10 1013.2
20260508153054 62 336 0.0 0.0 0.00 0.00 0.00 10 1013.3
20260508152551 61 313 0.0 0.0 0.00 0.00 0.00 10 1013.3
20260508152046 60 283 0.0 1.0 0.00 0.00 0.00 10 1013.4
20260508151543 60 312 0.0 1.0 0.00 0.00 0.00 10 1013.6
20260508151040 58 279 0.0 2.0 0.00 0.00 0.00 10 1013.7
20260508150538 57 300 0.0 1.0 0.00 0.00 0.00 10 1013.6
20260508150033 57 298 0.0 1.0 0.00 0.00 0.00 10 1013.7
20260508145530 57 284 0.0 0.0 0.00 0.00 0.00 10 1013.7
20260508145026 56 224 1.0 8.0 0.00 0.00 0.00 10 1014.0
20260508144524 56 299 0.0 1.0 0.00 0.00 0.00 10 1013.9
20260508144021 55 301 0.0 1.0 0.00 0.00 0.00 10 1013.9
20260508143519 55 256 0.0 3.0 0.00 0.00 0.00 10 1013.7
20260508143015 54 283 0.0 1.0 0.00 0.00 0.00 10 1013.7
20260508142512 55 272 0.0 3.0 0.00 0.00 0.00 10 1013.7
20260508142009 55 281 0.0 0.0 0.00 0.00 0.00 10 1013.9
20260508141505 55 262 0.0 0.0 0.00 0.00 0.00 10 1013.9
20260508141003 56 272 0.0 1.0 0.00 0.00 0.00 10 1013.7
20260508140500 54 46 0.0 0.0 0.00 0.00 0.00 10 1013.9
20260508135955 53 49 0.0 0.0 0.00 0.00 0.00 10 1013.6
20260508135452 52 41 0.0 0.0 0.00 0.00 0.00 10 1013.6
20260508134948 50 20 0.0 0.0 0.00 0.00 0.00 10 1014.1
20260508134445 49 31 0.0 0.0 0.00 0.00 0.00 10 1013.9
20260508133942 49 15 0.0 0.0 0.00 0.00 0.00 10 1013.9
20260508133439 48 13 0.0 0.0 0.00 0.00 0.00 10 1014.0
20260508132936 47 24 0.0 0.0 0.00 0.00 0.00 10 1013.7
20260508132434 46 317 0.0 0.0 0.00 0.00 0.00 10 1014.1
20260508131931 45 21 0.0 0.0 0.00 0.00 0.00 10 1014.0
20260508131426 44 24 0.0 0.0 0.00 0.00 0.00 10 1014.0
20260508130923 44 356 0.0 0.0 0.00 0.00 0.00 10 1014.0
20260508130420 44 3 0.0 0.0 0.00 0.00 0.00 10 1014.2
20260508125916 42 344 0.0 0.0 0.00 0.00 0.00 10 1014.0
20260508125412 42 315 0.0 0.0 0.00 0.00 0.00 10 1014.2
20260508124910 41 319 0.0 0.0 0.00 0.00 0.00 10 1014.1
20260508124407 40 351 0.0 0.0 0.00 0.00 0.00 10 1014.0
20260508123905 39 349 0.0 0.0 0.00 0.00 0.00 10 1014.2
20260508123403 39 48 0.0 0.0 0.00 0.00 0.00 10 1014.0
20260508122859 39 336 0.0 0.0 0.00 0.00 0.00 10 1014.3
20260508122356 38 17 0.0 0.0 0.00 0.00 0.00 10 1014.1
20260508121853 37 10 0.0 0.0 0.00 0.00 0.00 10 1013.7
20260508121352 38 5 0.0 0.0 0.00 0.00 0.00 10 1013.9
20260508120849 37 342 0.0 0.0 0.00 0.00 0.00 10 1014.1
20260508120347 36 43 0.0 0.0 0.00 0.00 0.00 10 1014.2
20260508115844 37 36 0.0 0.0 0.00 0.00 0.00 10 1014.0
20260508115341 39 7 0.0 0.0 0.00 0.00 0.00 10 1014.1
20260508114838 40 319 0.0 0.0 0.00 0.00 0.00 10 1014.4
20260508114335 40 10 0.0 0.0 0.00 0.00 0.00 10 1014.4
20260508113832 40 9 0.0 0.0 0.00 0.00 0.00 10 1014.2
20260508113330 39 3 0.0 0.0 0.00 0.00 0.00 10 1014.1
20260508112826 38 31 0.0 0.0 0.00 0.00 0.00 10 1014.2
20260508112323 40 34 0.0 0.0 0.00 0.00 0.00 10 1013.9
20260508111820 40 28 0.0 0.0 0.00 0.00 0.00 10 1014.1
20260508111317 40 11 0.0 0.0 0.00 0.00 0.00 10 1014.2
20260508110814 40 27 0.0 0.0 0.00 0.00 0.00 10 1014.1
20260508110312 41 27 0.0 0.0 0.00 0.00 0.00 10 1014.5
20260508105811 41 18 0.0 0.0 0.00 0.00 0.00 10 1014.3
20260508105308 41 35 0.0 0.0 0.00 0.00 0.00 10 1014.5
20260508104805 41 44 0.0 0.0 0.00 0.00 0.00 10 1014.3
20260508104302 41 29 0.0 0.0 0.00 0.00 0.00 10 1014.6
20260508103759 41 331 0.0 0.0 0.00 0.00 0.00 10 1014.4
20260508103256 42 313 0.0 1.0 0.00 0.00 0.00 10 1014.6
20260508102753 42 304 0.0 0.0 0.00 0.00 0.00 10 1014.5
20260508102251 41 291 0.0 0.0 0.00 0.00 0.00 10 1014.4
20260508101749 41 331 0.0 0.0 0.00 0.00 0.00 10 1014.6
20260508101246 40 34 0.0 0.0 0.00 0.00 0.00 10 1014.2
20260508100743 40 2 0.0 0.0 0.00 0.00 0.00 10 1014.3
20260508100241 39 336 0.0 0.0 0.00 0.00 0.00 10 1014.5
20260508095737 40 315 0.0 0.0 0.00 0.00 0.00 10 1014.5
20260508095235 37 300 0.0 0.0 0.00 0.00 0.00 10 1014.7
20260508094731 37 280 0.0 1.0 0.00 0.00 0.00 10 1014.4
20260508094229 37 302 0.0 1.0 0.00 0.00 0.00 10 1014.4
20260508093726 37 308 0.0 0.0 0.00 0.00 0.00 10 1014.3
20260508093223 36 303 0.0 0.0 0.00 0.00 0.00 10 1014.4
20260508092720 36 321 0.0 0.0 0.00 0.00 0.00 10 1014.4
20260508092218 36 358 0.0 0.0 0.00 0.00 0.00 10 1014.5
20260508091716 37 301 0.0 0.0 0.00 0.00 0.00 10 1014.1
20260508091213 38 319 0.0 0.0 0.00 0.00 0.00 10 1014.3
20260508090711 38 0 0.0 0.0 0.00 0.00 0.00 10 1014.1
20260508090208 41 15 0.0 0.0 0.00 0.00 0.00 10 1014.2
20260508085703 43 5 0.0 0.0 0.00 0.00 0.00 10 1014.4
20260508085201 43 13 0.0 0.0 0.00 0.00 0.00 10 1014.2
20260508084657 41 336 0.0 0.0 0.00 0.00 0.00 10 1014.3
20260508084155 41 305 0.0 0.0 0.00 0.00 0.00 10 1014.2
20260508083652 40 303 0.0 0.0 0.00 0.00 0.00 10 1014.2
20260508083149 41 333 0.0 0.0 0.00 0.00 0.00 10 1014.3
20260508082644 41 338 0.0 0.0 0.00 0.00 0.00 10 1014.4
20260508082142 42 322 0.0 0.0 0.00 0.00 0.00 10 1014.1
20260508081639 42 322 0.0 0.0 0.00 0.00 0.00 10 1014.4
20260508081135 40 306 0.0 0.0 0.00 0.00 0.00 10 1014.1
20260508080633 39 321 0.0 0.0 0.00 0.00 0.00 10 1014.4
20260508080131 38 328 0.0 0.0 0.00 0.00 0.00 10 1014.2
20260508075627 39 358 0.0 0.0 0.00 0.00 0.00 10 1014.4
20260508075124 39 324 0.0 0.0 0.00 0.00 0.00 10 1014.5
20260508074622 41 0 0.0 0.0 0.00 0.00 0.00 10 1014.4
20260508074118 40 359 0.0 0.0 0.00 0.00 0.00 10 1014.4
20260508073616 39 349 0.0 0.0 0.00 0.00 0.00 10 1014.5
20260508073114 40 330 0.0 0.0 0.00 0.00 0.00 10 1014.4
20260508072609 42 335 0.0 0.0 0.00 0.00 0.00 10 1014.2
20260508072106 43 320 0.0 0.0 0.00 0.00 0.00 10 1014.2
20260508071604 44 359 0.0 0.0 0.00 0.00 0.00 10 1014.2
20260508071102 45 306 0.0 0.0 0.00 0.00 0.00 10 1014.2
20260508070559 45 305 0.0 0.0 0.00 0.00 0.00 10 1014.2
20260508070058 46 308 0.0 0.0 0.00 0.00 0.00 10 1014.0
20260508065555 45 312 0.0 0.0 0.00 0.00 0.00 10 1014.1
20260508065053 43 305 0.0 0.0 0.00 0.00 0.00 10 1014.0
20260508064550 42 303 0.0 0.0 0.00 0.00 0.00 10 1014.0
20260508064048 42 308 0.0 0.0 0.00 0.00 0.00 10 1014.1
20260508063545 41 344 0.0 0.0 0.00 0.00 0.00 10 1014.0
20260508063043 41 20 0.0 0.0 0.00 0.00 0.00 10 1013.9
20260508062540 42 346 0.0 0.0 0.00 0.00 0.00 10 1014.0
20260508062037 43 308 0.0 0.0 0.00 0.00 0.00 10 1014.0
20260508061534 44 330 0.0 0.0 0.00 0.00 0.00 10 1014.1
20260508061031 47 17 0.0 0.0 0.00 0.00 0.00 10 1013.9
20260508060528 48 7 0.0 0.0 0.00 0.00 0.00 10 1014.1
20260508060026 47 6 0.0 0.0 0.00 0.00 0.00 10 1014.1
20260508055521 48 34 0.0 0.0 0.00 0.00 0.00 10 1014.0
20260508055018 46 351 0.0 0.0 0.00 0.00 0.00 10 1014.1
20260508054514 45 11 0.0 0.0 0.00 0.00 0.00 10 1014.1
20260508054012 44 20 0.0 0.0 0.00 0.00 0.00 10 1014.0
20260508053508 45 27 0.0 0.0 0.00 0.00 0.00 10 1014.0
20260508053007 46 15 0.0 0.0 0.00 0.00 0.00 10 1014.0
20260508052504 48 359 0.0 0.0 0.00 0.00 0.00 10 1013.9
20260508052000 48 305 0.0 0.0 0.00 0.00 0.00 10 1014.0
20260508051456 49 318 0.0 0.0 0.00 0.00 0.00 10 1013.9
20260508050951 50 28 0.0 0.0 0.00 0.00 0.00 10 1013.7
20260508050448 50 6 0.0 0.0 0.00 0.00 0.00 10 1014.1
20260508045945 49 44 0.0 0.0 0.00 0.00 0.00 10 1013.9
20260508045442 50 32 0.0 0.0 0.00 0.00 0.00 10 1013.7
20260508044940 52 299 0.0 0.0 0.00 0.00 0.00 10 1013.9
20260508044437 52 313 0.0 0.0 0.00 0.00 0.00 10 1013.7
20260508043932 53 328 0.0 0.0 0.00 0.00 0.00 10 1014.0
20260508043430 53 308 0.0 0.0 0.00 0.00 0.00 10 1014.0
20260508042926 55 355 0.0 0.0 0.00 0.00 0.00 10 1013.9
20260508042424 55 327 0.0 0.0 0.00 0.00 0.00 10 1013.7
20260508041920 55 294 0.0 0.0 0.00 0.00 0.00 10 1014.0
20260508041417 56 298 0.0 0.0 0.00 0.00 0.00 10 1013.7
20260508040914 57 299 0.0 0.0 0.00 0.00 0.00 10 1013.6
20260508040411 58 296 0.0 0.0 0.00 0.00 0.00 10 1013.6
20260508035909 59 301 0.0 2.0 0.00 0.00 0.00 10 1013.5
20260508035405 59 291 0.0 1.0 0.00 0.00 0.00 10 1013.5
20260508034902 59 283 0.0 1.0 0.00 0.00 0.00 10 1013.5
20260508034359 59 289 0.0 0.0 0.00 0.00 0.00 10 1013.6
20260508033850 58 270 0.0 0.0 0.00 0.00 0.00 10 1013.7
20260508033349 58 299 0.0 0.0 0.00 0.00 0.00 10 1013.6
20260508032846 57 5 0.0 0.0 0.00 0.00 0.00 10 1013.6
20260508032343 57 328 0.0 0.0 0.00 0.00 0.00 10 1013.5
20260508031839 57 306 0.0 0.0 0.00 0.00 0.00 10 1013.9
20260508031337 57 299 0.0 0.0 0.00 0.00 0.00 10 1013.5
20260508030833 57 314 0.0 0.0 0.00 0.00 0.00 10 1013.4
20260508030330 56 1 0.0 0.0 0.00 0.00 0.00 10 1013.3
20260508025827 57 332 0.0 0.0 0.00 0.00 0.00 10 1013.6
20260508025324 56 322 0.0 0.0 0.00 0.00 0.00 10 1013.1
20260508024821 57 313 0.0 0.0 0.00 0.00 0.00 10 1013.4
20260508024317 59 312 0.0 0.0 0.00 0.00 0.00 10 1013.6
20260508023814 58 297 0.0 0.0 0.00 0.00 0.00 10 1013.1
20260508023311 59 285 0.0 0.0 0.00 0.00 0.00 10 1013.3
20260508022807 63 323 0.0 0.0 0.00 0.00 0.00 10 1013.0
20260508022306 61 12 0.0 0.0 0.00 0.00 0.00 10 1013.1
20260508021801 61 3 0.0 0.0 0.00 0.00 0.00 10 1012.9
20260508021256 61 321 0.0 0.0 0.00 0.00 0.00 10 1012.9
20260508020752 62 311 0.0 1.0 0.00 0.00 0.00 10 1012.7
20260508020251 63 315 0.0 1.0 0.00 0.00 0.00 10 1012.3
20260508015747 64 304 0.0 0.0 0.00 0.00 0.00 10 1012.6
20260508015244 64 313 0.0 0.0 0.00 0.00 0.00 10 1012.6
20260508014741 64 312 0.0 1.0 0.00 0.00 0.00 10 1012.7
20260508014238 62 292 0.0 1.0 0.00 0.00 0.00 10 1012.6
20260508013734 64 12 0.0 0.0 0.00 0.00 0.00 10 1012.6
20260508013231 65 306 0.0 1.0 0.00 0.00 0.00 10 1012.4
20260508012728 65 15 0.0 0.0 0.00 0.00 0.00 10 1012.5
20260508012225 65 9 0.0 1.0 0.00 0.00 0.00 10 1012.4
20260508011723 66 41 0.0 2.0 0.00 0.00 0.00 10 1012.3
20260508011220 66 35 0.0 3.0 0.00 0.00 0.00 10 1012.2
20260508010717 66 17 0.0 0.0 0.00 0.00 0.00 10 1012.4
20260508010215 66 50 0.0 2.0 0.00 0.00 0.00 10 1012.4
20260508005712 67 25 0.0 1.0 0.00 0.00 0.00 10 1012.3
20260508005208 67 41 0.0 0.0 0.00 0.00 0.00 10 1012.3
20260508004704 69 33 0.0 2.0 0.00 0.00 0.00 10 1012.4
20260508004200 68 22 0.0 0.0 0.00 0.00 0.00 10 1012.4
20260508003657 68 350 0.0 0.0 0.00 0.00 0.00 10 1012.3
20260508003155 68 9 0.0 1.0 0.00 0.00 0.00 10 1012.2
20260508002651 67 7 0.0 1.0 0.00 0.00 0.00 10 1012.3
20260508002149 67 347 0.0 0.0 0.00 0.00 0.00 10 1012.2
20260508001644 68 5 0.0 0.0 0.00 0.00 0.00 10 1012.2
20260508001140 69 28 0.0 0.0 0.00 0.00 0.00 10 1012.2
20260508000636 69 5 0.0 1.0 0.00 0.00 0.00 10 1012.0
20260508000134 69 349 0.0 1.0 0.00 0.00 0.00 10 1012.1
20260507235630 67 350 0.0 0.0 0.00 0.00 0.00 10 1012.2
20260507235128 67 20 0.0 2.0 0.00 0.00 0.00 10 1012.1
20260507234624 67 5 0.0 1.0 0.00 0.00 0.00 10 1012.3
20260507234121 68 12 0.0 0.0 0.00 0.00 0.00 10 1012.4
20260507233618 67 4 0.0 0.0 0.00 0.00 0.00 10 1012.3
20260507233116 67 13 2.0 3.0 0.00 0.00 0.00 10 1012.2
20260507232613 67 0 0.0 0.0 0.00 0.00 0.00 10 1012.3
20260507232110 67 39 0.0 0.0 0.00 0.00 0.00 10 1012.1
20260507231606 68 357 0.0 2.0 0.00 0.00 0.00 10 1012.1
20260507231103 67 12 0.0 0.0 0.00 0.00 0.00 10 1012.2
20260507230559 67 1 0.0 0.0 0.00 0.00 0.00 10 1012.3
20260507230056 67 9 0.0 0.0 0.00 0.00 0.00 10 1012.0
20260507225551 68 22 0.0 2.0 0.00 0.00 0.00 10 1012.5
20260507225048 68 11 1.0 2.0 0.00 0.00 0.00 10 1012.3
20260507224543 68 1 0.0 0.0 0.00 0.00 0.00 10 1012.2
20260507224040 68 4 0.0 0.0 0.00 0.00 0.00 10 1012.2
20260507223536 67 22 0.0 0.0 0.00 0.00 0.00 10 1012.4
20260507223034 67 4 0.0 2.0 0.00 0.00 0.00 10 1012.6
20260507222531 68 359 0.0 0.0 0.00 0.00 0.00 10 1012.2
20260507222027 68 11 0.0 0.0 0.00 0.00 0.00 10 1012.3
20260507221523 67 9 0.0 0.0 0.00 0.00 0.00 10 1012.4
20260507221020 67 20 0.0 0.0 0.00 0.00 0.00 10 1012.6
20260507220518 67 3 0.0 0.0 0.00 0.00 0.00 10 1012.5
20260507220015 68 3 0.0 1.0 0.00 0.00 0.00 10 1012.5
20260507215511 67 14 0.0 2.0 0.00 0.00 0.00 10 1012.5
20260507215009 68 33 1.0 5.0 0.00 0.00 0.00 10 1012.5
20260507214506 68 40 0.0 0.0 0.00 0.00 0.00 10 1012.4
20260507214001 66 8 0.0 1.0 0.00 0.00 0.00 10 1012.7
20260507213458 67 5 0.0 5.0 0.00 0.00 0.00 10 1012.9
20260507212955 68 8 1.0 3.0 0.00 0.00 0.00 10 1012.6
20260507212451 67 348 0.0 2.0 0.00 0.00 0.00 10 1012.7
20260507211948 68 348 2.0 3.0 0.00 0.00 0.00 10 1012.6
20260507211444 66 13 0.0 0.0 0.00 0.00 0.00 10 1012.7
20260507210941 66 12 0.0 3.0 0.00 0.00 0.00 10 1012.9
20260507210438 66 13 0.0 0.0 0.00 0.00 0.00 10 1013.0
20260507205935 66 1 1.0 2.0 0.00 0.00 0.00 10 1013.0
20260507205432 67 39 0.0 2.0 0.00 0.00 0.00 10 1013.1
20260507204928 66 25 0.0 1.0 0.00 0.00 0.00 10 1013.1
20260507204425 67 5 0.0 0.0 0.00 0.00 0.00 10 1013.0
20260507203922 66 351 0.0 2.0 0.00 0.00 0.00 10 1013.1
20260507203420 66 339 0.0 1.0 0.00 0.00 0.00 10 1013.1
20260507202916 66 343 1.0 3.0 0.00 0.00 0.00 10 1013.0
20260507202413 66 6 0.0 0.0 0.00 0.00 0.00 10 1013.0
20260507201908 66 340 0.0 0.0 0.00 0.00 0.00 10 1012.9
20260507201404 66 330 0.0 3.0 0.00 0.00 0.00 10 1013.0
20260507200901 66 329 1.0 1.0 0.00 0.00 0.00 10 1013.0
20260507200357 65 345 0.0 3.0 0.00 0.00 0.00 10 1013.1
20260507195853 66 341 0.0 3.0 0.00 0.00 0.00 10 1013.0
20260507195350 66 356 0.0 0.0 0.00 0.00 0.00 10 1012.9
20260507194847 66 5 0.0 0.0 0.00 0.00 0.00 10 1013.1
20260507194343 66 1 0.0 1.0 0.00 0.00 0.00 10 1013.0
20260507193840 66 12 0.0 0.0 0.00 0.00 0.00 10 1012.9
20260507193337 66 341 0.0 0.0 0.00 0.00 0.00 10 1012.9
20260507192833 66 11 1.0 2.0 0.00 0.00 0.00 10 1013.0
20260507192330 66 326 0.0 3.0 0.00 0.00 0.00 10 1012.7
20260507191827 66 354 2.0 2.0 0.00 0.00 0.00 10 1012.6
20260507191323 65 352 0.0 1.0 0.00 0.00 0.00 10 1012.7
20260507190820 66 11 0.0 0.0 0.00 0.00 0.00 10 1012.9
20260507190318 65 32 0.0 0.0 0.00 0.00 0.00 10 1012.7
20260507185817 66 42 0.0 0.0 0.00 0.00 0.00 10 1012.7
20260507185313 66 332 0.0 1.0 0.00 0.00 0.00 10 1012.9
20260507184810 64 5 0.0 2.0 0.00 0.00 0.00 10 1013.0
20260507184309 65 7 0.0 0.0 0.00 0.00 0.00 10 1012.9
20260507183805 65 12 0.0 2.0 0.00 0.00 0.00 10 1013.0
20260507183302 66 20 0.0 3.0 0.00 0.00 0.00 10 1012.9
20260507182759 66 345 0.0 3.0 0.00 0.00 0.00 10 1013.1
20260507182254 65 12 2.0 3.0 0.00 0.00 0.00 10 1013.1
20260507181751 66 355 1.0 2.0 0.00 0.00 0.00 10 1013.0
20260507181247 66 22 0.0 1.0 0.00 0.00 0.00 10 1013.2
20260507180744 66 357 0.0 3.0 0.00 0.00 0.00 10 1013.0
20260507180241 66 1 0.0 2.0 0.00 0.00 0.00 10 1013.3
20260507175736 65 12 0.0 0.0 0.00 0.00 0.00 10 1013.3
20260507175234 66 3 0.0 0.0 0.00 0.00 0.00 10 1013.3
20260507174731 64 1 0.0 0.0 0.00 0.00 0.00 10 1013.3
20260507174229 64 7 0.0 3.0 0.00 0.00 0.00 10 1013.5
20260507173726 65 19 0.0 1.0 0.00 0.00 0.00 10 1013.5
20260507173223 64 6 0.0 0.0 0.00 0.00 0.00 10 1013.3
20260507172720 65 33 0.0 2.0 0.00 0.00 0.00 10 1013.5
20260507172217 64 350 0.0 1.0 0.00 0.00 0.00 10 1013.6
20260507171716 64 17 0.0 1.0 0.00 0.00 0.00 10 1013.6
20260507171214 64 40 0.0 3.0 0.00 0.00 0.00 10 1013.6
20260507170711 64 358 0.0 1.0 0.00 0.00 0.00 10 1013.6
20260507170208 64 15 0.0 1.0 0.00 0.00 0.00 10 1013.4
20260507165704 64 41 1.0 3.0 0.00 0.00 0.00 10 1013.6
20260507165200 64 38 1.0 2.0 0.00 0.00 0.00 10 1013.4
20260507164656 64 5 0.0 0.0 0.00 0.00 0.00 10 1013.5
20260507164153 64 10 0.0 2.0 0.00 0.00 0.00 10 1013.4
20260507163650 64 359 0.0 1.0 0.00 0.00 0.00 10 1013.5
20260507163148 63 6 0.0 2.0 0.00 0.00 0.00 10 1013.6
20260507162644 63 6 2.0 3.0 0.00 0.00 0.00 10 1013.6
20260507162140 64 10 0.0 2.0 0.00 0.00 0.00 10 1013.5